Hourly Weather Bolshie Ozerki

Today, 1 August, Sunday

Time Temperature Precipitation Wind Pressure Humidity
00:00 +23°C° 0 mm 1 mps 742 mmHg 54%
01:00 +22°C° 0 mm 1 mps 742 mmHg 55%
02:00 +22°C° 0 mm 1 mps 742 mmHg 57%
03:00 +21°C° 0 mm 1 mps 743 mmHg 58%
04:00 +22°C° 0 mm 1 mps 743 mmHg 60%
05:00 +22°C° 0 mm 1 mps 743 mmHg 61%
06:00 +22°C° 0 mm 1 mps 743 mmHg 62%
07:00 +24°C° 0 mm 1 mps 743 mmHg 57%
08:00 +26°C° 0 mm 1 mps 744 mmHg 51%
09:00 +26°C° 0 mm 0 mps 744 mmHg 46%
10:00 +29°C° 0 mm 1 mps 744 mmHg 42%
11:00 +31°C° 0 mm 1 mps 744 mmHg 38%
12:00 +32°C° 0 mm 2 mps 744 mmHg 34%
13:00 +32°C° 0 mm 2 mps 743 mmHg 32%
14:00 +34°C° 0 mm 2 mps 743 mmHg 30%
15:00 +35°C° 0 mm 2 mps 743 mmHg 28%
16:00 +34°C° 0 mm 2 mps 743 mmHg 30%
17:00 +34°C° 0 mm 2 mps 743 mmHg 31%
18:00 +34°C° 0 mm 3 mps 743 mmHg 33%
19:00 +31°C° 0 mm 3 mps 743 mmHg 37%
20:00 +29°C° 0 mm 3 mps 743 mmHg 41%
21:00 +26°C° 0 mm 3 mps 743 mmHg 46%
22:00 +26°C° 0 mm 3 mps 743 mmHg 47%
23:00 +25°C° 0 mm 3 mps 743 mmHg 49%

Tomorrow, 2 August, Monday

Time Temperature Precipitation Wind Pressure Humidity
00:00 +24°C° 0 mm 3 mps 743 mmHg 50%
01:00 +24°C° 0 mm 3 mps 743 mmHg 51%
02:00 +22°C° 0 mm 3 mps 743 mmHg 53%
03:00 +23°C° 0 mm 2 mps 743 mmHg 55%
04:00 +23°C° 0 mm 2 mps 743 mmHg 56%
05:00 +23°C° 0 mm 2 mps 743 mmHg 57%
06:00 +23°C° 0 mm 2 mps 743 mmHg 58%
07:00 +26°C° 0 mm 2 mps 743 mmHg 53%
08:00 +28°C° 0 mm 3 mps 743 mmHg 49%
09:00 +30°C° 0 mm 3 mps 743 mmHg 44%
10:00 +33°C° 0 mm 3 mps 743 mmHg 40%
11:00 +34°C° 0 mm 4 mps 742 mmHg 37%
12:00 +36°C° 0 mm 4 mps 742 mmHg 34%
13:00 +36°C° 0 mm 4 mps 742 mmHg 31%
14:00 +37°C° 0 mm 5 mps 741 mmHg 29%
15:00 +37°C° 0 mm 5 mps 741 mmHg 26%
16:00 +37°C° 0 mm 5 mps 741 mmHg 27%
17:00 +36°C° 0 mm 5 mps 740 mmHg 28%
18:00 +36°C° 0 mm 5 mps 740 mmHg 29%
19:00 +34°C° 0 mm 5 mps 740 mmHg 33%
20:00 +32°C° 0 mm 4 mps 740 mmHg 36%
21:00 +29°C° 0 mm 4 mps 740 mmHg 39%
22:00 +28°C° 0 mm 4 mps 740 mmHg 43%
23:00 +27°C° 0 mm 4 mps 740 mmHg 46%

Day after tomorrow, 3 August, Tuesday

Time Temperature Precipitation Wind Pressure Humidity
00:00 +26°C° 0 mm 4 mps 740 mmHg 49%
01:00 +24°C° 0 mm 3 mps 740 mmHg 58%
02:00 +23°C° 0 mm 2 mps 740 mmHg 67%
03:00 +22°C° 0 mm 1 mps 740 mmHg 76%
04:00 +22°C° 0 mm 1 mps 740 mmHg 76%
05:00 +21°C° 0 mm 2 mps 740 mmHg 76%
06:00 +21°C° 0 mm 2 mps 740 mmHg 76%
07:00 +24°C° 0 mm 3 mps 740 mmHg 70%
08:00 +25°C° 0 mm 4 mps 741 mmHg 64%
09:00 +27°C° 0 mm 5 mps 741 mmHg 58%
10:00 +27°C° 0 mm 5 mps 741 mmHg 57%
11:00 +28°C° 0 mm 4 mps 741 mmHg 55%
12:00 +28°C° 0 mm 4 mps 741 mmHg 54%
13:00 +30°C° 0 mm 5 mps 741 mmHg 48%
14:00 +32°C° 0 mm 5 mps 740 mmHg 43%
15:00 +34°C° 0 mm 5 mps 740 mmHg 37%
16:00 +33°C° 0 mm 5 mps 740 mmHg 39%
17:00 +32°C° 0 mm 5 mps 740 mmHg 41%
18:00 +30°C° 0 mm 6 mps 740 mmHg 44%
19:00 +27°C° 0.4 mm 5 mps 741 mmHg 50%
20:00 +25°C° 0.4 mm 4 mps 741 mmHg 57%
21:00 +21°C° 0.4 mm 3 mps 742 mmHg 64%
22:00 +20°C° 0 mm 3 mps 742 mmHg 68%
23:00 +19°C° 0 mm 3 mps 742 mmHg 73%

4 August, Wednesday

Time Temperature Precipitation Wind Pressure Humidity
00:00 +18°C° 0 mm 3 mps 743 mmHg 77%
01:00 +18°C° 0 mm 3 mps 743 mmHg 80%
02:00 +17°C° 0 mm 3 mps 743 mmHg 82%
03:00 +16°C° 0 mm 3 mps 744 mmHg 85%
04:00 +17°C° 0 mm 3 mps 744 mmHg 83%
05:00 +17°C° 0 mm 2 mps 744 mmHg 82%
06:00 +17°C° 0 mm 2 mps 745 mmHg 81%
07:00 +19°C° 0 mm 3 mps 745 mmHg 71%
08:00 +21°C° 0 mm 3 mps 745 mmHg 61%
09:00 +23°C° 0 mm 4 mps 745 mmHg 51%
10:00 +25°C° 0 mm 4 mps 745 mmHg 45%
11:00 +26°C° 0 mm 4 mps 746 mmHg 40%
12:00 +28°C° 0 mm 4 mps 746 mmHg 35%
13:00 +28°C° 0 mm 4 mps 746 mmHg 32%
14:00 +29°C° 0 mm 4 mps 745 mmHg 30%
15:00 +29°C° 0 mm 4 mps 745 mmHg 27%
16:00 +29°C° 0 mm 4 mps 745 mmHg 29%
17:00 +28°C° 0 mm 4 mps 746 mmHg 30%
18:00 +27°C° 0 mm 5 mps 746 mmHg 32%
19:00 +25°C° 0 mm 4 mps 746 mmHg 37%
20:00 +24°C° 0 mm 3 mps 746 mmHg 41%
21:00 +21°C° 0 mm 2 mps 746 mmHg 46%
22:00 +20°C° 0 mm 2 mps 747 mmHg 49%
23:00 +20°C° 0 mm 1 mps 747 mmHg 52%

5 August, Thursday

Time Temperature Precipitation Wind Pressure Humidity
00:00 +19°C° 0 mm 1 mps 747 mmHg 54%
01:00 +19°C° 0 mm 1 mps 747 mmHg 55%
02:00 +18°C° 0 mm 1 mps 747 mmHg 56%
03:00 +18°C° 0 mm 1 mps 747 mmHg 56%
04:00 +18°C° 0 mm 1 mps 747 mmHg 56%
05:00 +19°C° 0 mm 1 mps 747 mmHg 56%
06:00 +18°C° 0 mm 2 mps 748 mmHg 56%
07:00 +20°C° 0 mm 2 mps 748 mmHg 51%
08:00 +23°C° 0 mm 1 mps 748 mmHg 45%
09:00 +25°C° 0 mm 1 mps 748 mmHg 39%
10:00 +26°C° 0 mm 1 mps 748 mmHg 36%
11:00 +27°C° 0 mm 1 mps 747 mmHg 33%
12:00 +27°C° 0 mm 0 mps 747 mmHg 29%
13:00 +29°C° 0 mm 1 mps 747 mmHg 28%
14:00 +29°C° 0 mm 1 mps 747 mmHg 27%
15:00 +30°C° 0 mm 1 mps 747 mmHg 27%
16:00 +30°C° 0 mm 1 mps 747 mmHg 28%
17:00 +29°C° 0 mm 1 mps 746 mmHg 29%
18:00 +29°C° 0 mm 1 mps 746 mmHg 30%
19:00 +27°C° 0 mm 2 mps 746 mmHg 35%
20:00 +25°C° 0 mm 2 mps 746 mmHg 39%
21:00 +23°C° 0 mm 2 mps 746 mmHg 43%
22:00 +21°C° 0 mm 2 mps 746 mmHg 46%
23:00 +20°C° 0 mm 2 mps 746 mmHg 48%

6 August, Friday

Time Temperature Precipitation Wind Pressure Humidity
00:00 +19°C° 0 mm 3 mps 745 mmHg 50%
01:00 +19°C° 0 mm 3 mps 746 mmHg 52%
02:00 +18°C° 0 mm 3 mps 746 mmHg 53%
03:00 +18°C° 0 mm 3 mps 746 mmHg 55%
04:00 +18°C° 0 mm 3 mps 746 mmHg 55%
05:00 +18°C° 0 mm 3 mps 746 mmHg 55%
06:00 +18°C° 0 mm 3 mps 746 mmHg 56%
07:00 +21°C° 0 mm 3 mps 746 mmHg 49%
08:00 +23°C° 0 mm 4 mps 746 mmHg 43%
09:00 +27°C° 0 mm 4 mps 746 mmHg 37%
10:00 +28°C° 0 mm 5 mps 746 mmHg 35%
11:00 +29°C° 0 mm 5 mps 745 mmHg 32%
12:00 +30°C° 0 mm 5 mps 745 mmHg 30%
13:00 +32°C° 0 mm 5 mps 745 mmHg 28%
14:00 +32°C° 0 mm 5 mps 745 mmHg 27%
15:00 +33°C° 0 mm 5 mps 744 mmHg 26%
16:00 +32°C° 0 mm 5 mps 744 mmHg 27%
17:00 +32°C° 0 mm 5 mps 744 mmHg 29%
18:00 +32°C° 0 mm 5 mps 743 mmHg 30%
19:00 +29°C° 0 mm 5 mps 743 mmHg 33%
20:00 +27°C° 0 mm 4 mps 743 mmHg 37%
21:00 +25°C° 0 mm 4 mps 743 mmHg 40%
22:00 +23°C° 0 mm 5 mps 743 mmHg 40%
23:00 +23°C° 0 mm 5 mps 743 mmHg 39%
Show more

We Need Your Consent

Meteoprog and our Service Providers may store and access personal data such as cookies, device identifiers or other similar technologies on your device and process such data to personalise content and ads, as well as provide social media features and to analyse the traffic.

  • Store and/or access information on your device

    Cookies, device identifiers or other information can be stored or accessed on your device for the purposes indicated above.

  • Personalised ads and content, ad and content measurement, audience insights, and products development

    Ads and content can be personalised based on a profile. More data can be added to better personalise ads and content. Ad and content performance can be measured. Insights about the audience who saw the ads and content can be derived. Such data can be used to develop or improve user’s experience, systems and software.

By clicking ‘I Agree’ you will allow the use of indicated cookies, device identifiers, web beacons or other similar technologies. Your settings can be changed in the browser on your device.

For certain purposes, legitimate interests may be relied on, rather than consent. You can read more about this in our Privacy and Cookie Policy.